Fernwood, MS

12:39 AM CST on January 21, 2017 (GMT -0600)
McComb

Weather History for KMCB - March, 2011

Change the Weather History Date:

Sunday, March 27, 2011

  Actual Average Record
Temperature  
Mean Temperature 70 °F -  
Max Temperature 81 °F 71 °F 84 °F (1991)
Min Temperature 61 °F 48 °F 24 °F (1955)
Cooling Degree Days 5    
Growing Degree Days 20 (Base 50)    
Moisture  
Dew Point 62 °F    
Average Humidity 82    
Maximum Humidity 100    
Minimum Humidity 60    
Precipitation  
Precipitation 0.00 in - - ()
Sea Level Pressure  
Sea Level Pressure 29.81 in    
Wind  
Wind Speed 5 mph (WNW)    
Max Wind Speed 12 mph    
Max Gust Speed 16 mph    
Visibility 8 miles    
Events      
Averages and records for this station are not official NWS values.
T = Trace of Precipitation, MM = Missing Value Source: NWS Daily Summary

Daily Weather History Graph

Daily Weather History Graph

Search for Another Location

Airport or City:

Trip Planner

Search our weather history database for the weather conditions in past years. The results will help you decide how hot, cold, wet, or windy it might be!

Date:

Astronomy

Mar. 27, 2011 Rise Set
Actual Time 6:57 AM CDT 7:17 PM CDT
Civil Twilight 6:32 AM CDT 7:42 PM CDT
Nautical Twilight 6:04 AM CDT 8:10 PM CDT
Astronomical Twilight 5:35 AM CDT 8:39 PM CDT
Moon 2:46 AM CDT (3/27) 1:22 PM CDT (3/27)
Length of Visible Light 13h 09m
Length of Day
12h 20m
Last Quarter, 38% of the Moon is Illuminated
Mar 27
Last Quarter
Apr 3
New
Apr 11
First Quarter
Apr 17
Full
Apr 24
Last Quarter

Hourly Weather History & Observations

Time (CDT) Temp. Dew Point Humidity Pressure Visibility Wind Dir Wind Speed Gust Speed Precip Events Conditions
12:53 AM 69.1 °F 66.9 °F 93% 29.76 in 6.0 mi SSW 6.9 mph - N/A   Clear
1:13 AM 69.8 °F 68.0 °F 94% 29.77 in 6.0 mi SSW 6.9 mph - N/A   Scattered Clouds
1:26 AM 69.8 °F 68.0 °F 94% 29.77 in 6.0 mi SSW 5.8 mph - N/A   Mostly Cloudy
1:53 AM 69.1 °F 68.0 °F 96% 29.76 in 6.0 mi SSW 5.8 mph - N/A   Mostly Cloudy
2:53 AM 69.1 °F 68.0 °F 96% 29.75 in 5.0 mi SSW 4.6 mph - N/A   Overcast
3:38 AM 69.8 °F 68.0 °F 94% 29.76 in 6.0 mi WSW 6.9 mph - N/A   Overcast
4:19 AM 69.8 °F 68.0 °F 94% 29.78 in 7.0 mi WSW 5.8 mph - N/A   Overcast
4:41 AM 69.8 °F 68.0 °F 94% 29.78 in 7.0 mi West 4.6 mph - N/A   Overcast
4:53 AM 70.0 °F 68.0 °F 93% 29.76 in 7.0 mi West 3.5 mph - N/A   Overcast
5:01 AM 69.8 °F 66.2 °F 88% 29.78 in 7.0 mi WSW 4.6 mph - N/A   Overcast
5:53 AM 68.0 °F 66.9 °F 96% 29.78 in 4.0 mi Calm Calm - N/A   Mostly Cloudy
6:53 AM 66.0 °F 64.9 °F 96% 29.80 in 4.0 mi Calm Calm - N/A   Overcast
7:04 AM 66.2 °F 66.2 °F 100% 29.82 in 4.0 mi Calm Calm - N/A   Overcast
7:17 AM 64.4 °F 62.6 °F 94% 29.83 in 7.0 mi North 11.5 mph 16.1 mph N/A   Overcast
8:03 AM 62.6 °F 55.4 °F 77% 29.85 in 10.0 mi North 5.8 mph - N/A   Overcast
8:17 AM 62.6 °F 55.4 °F 77% 29.85 in 10.0 mi North 5.8 mph - N/A   Overcast
9:53 AM 62.1 °F 55.0 °F 78% 29.86 in 10.0 mi North 8.1 mph - N/A   Overcast
10:53 AM 64.0 °F 55.9 °F 75% 29.87 in 10.0 mi Variable 5.8 mph - N/A   Overcast
11:53 AM 66.0 °F 57.0 °F 73% 29.86 in 10.0 mi Variable 4.6 mph - N/A   Overcast
12:18 PM 66.2 °F 57.2 °F 73% 29.87 in 10.0 mi Variable 5.8 mph - N/A   Overcast
12:53 PM 69.1 °F 57.9 °F 68% 29.85 in 10.0 mi NNW 6.9 mph - N/A   Overcast
1:20 PM 69.8 °F 57.2 °F 64% 29.85 in 10.0 mi North 5.8 mph - N/A   Scattered Clouds
1:53 PM 72.0 °F 60.1 °F 66% 29.82 in 10.0 mi East 4.6 mph - N/A   Scattered Clouds
2:53 PM 75.9 °F 62.1 °F 62% 29.78 in 10.0 mi NW 4.6 mph - N/A   Scattered Clouds
3:53 PM 78.1 °F 63.0 °F 60% 29.77 in 10.0 mi WSW 5.8 mph - N/A   Mostly Cloudy
4:53 PM 78.1 °F 64.0 °F 62% 29.76 in 10.0 mi SSE 3.5 mph - N/A   Scattered Clouds
5:53 PM 78.1 °F 64.0 °F 62% 29.76 in 10.0 mi NNE 5.8 mph - N/A   Overcast
7:53 PM 72.0 °F 64.9 °F 78% 29.78 in 10.0 mi North 5.8 mph - N/A   Mostly Cloudy
8:53 PM 70.0 °F 62.1 °F 76% 29.80 in 10.0 mi North 5.8 mph - N/A   Scattered Clouds
9:53 PM 66.0 °F 57.9 °F 75% 29.83 in 10.0 mi Variable 5.8 mph - N/A   Mostly Cloudy
10:53 PM 63.0 °F 57.0 °F 81% 29.84 in 10.0 mi Calm Calm - N/A   Scattered Clouds
11:53 PM 61.0 °F 55.9 °F 83% 29.86 in 10.0 mi North 5.8 mph - N/A   Partly Cloudy